FENGYUN 1C DEB, 30313

Orbit data source: Space-Track

FENGYUN 1C DEB, 30313 is space debris in SSO originally from a launch on Mon, 10 May 1999 UTC launched from the Taiyaun Space Center, China (TSC). Fengyun 1C debris stems from the Chinese weather satellite Fengyun-1C, which was intentionally destroyed by a Chinese anti-satellite missile in 2007. This event dramatically increased the amount of space debris, with thousands of trackable fragments posing hazards to satellites and human spaceflight. The Fengyun 1C debris cloud has become a focal point in discussions about space sustainability and the need for international regulations to prevent the creation of new debris.

Loading next visibility...
FENGYUN 1C DEB details
Identifier
30313, 1999-025AAA
Orbit
SSO
Last TLE update6 hours ago
Origin
Flag of CNCASC (CN / PRC)
ManufacturerUnknown
MissionSpacecraft
Bus & MotorUnknown
MassUnknown
Launch date (UTC)
1999-05-10 (26 years ago)
Launch vehicleUnknown
Launch site
Taiyaun Space Center, China (TSC)
Object type
Payload
Rocket body
Debris
Shape & HBRUnknown
Radar Cross SectionSmall (<0.1 m²)

Expand to show TLE details & history

TLE from 6 hours ago
0 FENGYUN 1C DEB
1 30313U 99025AAA 25025.62806346  .00008369  00000-0  37373-2 0  9995
2 30313  98.8864 108.7142 0063213 183.0263 287.3846 14.21863889925202
Epoch: 2025-01-25T15:04Z
Definitive object data (Epoch: 2025-01-25T15:04:24.682Z)
Latitude68.52651°
Longitude-39.27459°
Altitude817.536 km
Speed7.458 km/s
True Right ascension20h 48m 00s
True Declination68° 24' 36"
Sunlit
Object was in daylight at TLE epoch
Visualization TLE readout
Latitude-80.66964°
Longitude-133.51105°
Altitude842.653 km
Speed7.433 km/s
Apparent Right ascension10h 57m 46s
Apparent Declination-63° 45' 29"
Sunlit
Object is in daylight
Visualization observer readout
Local Sidereal Time22:13:27
Azimuth191.725° SSW
Elevation-65.277°
Doppler factor1
Orbital elements
Apogee altitude861.698 km
Perigee altitude770.743 km
Semi-major axis7,194.358 km
Eccentricity0.0063213
Inclination98.8864°
RAAN108.7142°
Arg. of periapsis183.0263°
True anomaly286.6917°
Mean anomaly287.3846°
Eccentric anomaly287.03831°
Mean motion3.55676 °/min
BSTAR0.0037373
Orbital period101.22 mins
Loading maneuver chart data...
Loading historical data...
Loading historical data...
Loading historical data...
Loading historical data...
Loading historical data...
Loading historical data...
Loading historical data...

FENGYUN 1C DEB Visibility forecast

Observer location: undefined°, undefined

Span
Click to sort rows by Start time (UTC) header in descending order
Start Az.
Max El. time (UTC)
Max El. Az.
Max El.
End time (UTC)
End Az.
7 mins2025-01-26 04:13:16.560Z109.8° ESE2025-01-26 04:17:16.560Z56.261° ENE21.644°2025-01-26 04:20:16.560Z18.85° NNE
9 mins2025-01-26 05:52:16.560Z191.258° SSW2025-01-26 05:56:16.560Z253.298° W36.096°2025-01-26 06:01:16.560Z332.228° NNW
8 mins2025-01-26 18:10:16.560Z20.106° NNE2025-01-26 18:14:16.560Z113.58° SE43.567°2025-01-26 18:18:16.560Z186.059° SSW
|